Back to catalog

STARLINK-4107

AliveCommunicationsVLEO
NORAD 53287·PAYLOAD·🇺🇸 United States

Launched Jul 24, 2022 from Cape Canaveral Space Force Station

Loading…

Next Passes (next 24 hours)

TLE

FreshSource: CelesTrak SupGP

Epoch: Sep 14, 2026, 14:22 UTC

1 53287C 22086AX  26257.59909722 -.00031693  00000+0 -96176-3 0  2570
2 53287  53.1598  41.6165 0001273  83.5372 343.9351 15.33562170    14

Track STARLINK-4107 in real time with AllMySat

Download on the App Store